Regional Weather Roundup
Issued by NWS

Home | Current Version | Previous Version | Text Only | Print | Product List | Glossary On
Versions: 1 2 3 4 5 6 7 8 9 10 11 12 13 14 15 16 17 18 19 20 21 22 23 24 25 26 27 28 29 30 31 32 33 34 35 36 37 38 39 40 41 42 43 44 45 46 47 48 49 50
000
ASUS45 KTFX 310419
RWRMT
MONTANA REGIONAL WEATHER ROUNDUP
NATIONAL WEATHER SERVICE GREAT FALLS MT
1000 PM MDT SUN AUG 30 2015

NOTE: "FAIR" INDICATES FEW OR NO CLOUDS BELOW 12000 FEET WITH NO
SIGNIFICANT WEATHER AND/OR OBSTRUCTIONS TO VISIBILITY.

MTZ001>007-043-310500-
WEST OF THE DIVIDE

CITY           SKY/WX    TMP DP  RH WIND       PRES   REMARKS
KALISPELL      CLOUDY    52  46  80 CALM      29.97R
MISSOULA       CLOUDY    51  46  83 E5        30.07R
BUTTE          CLOUDY    54  38  54 NW18      30.07R
MULLAN PASS    CLOUDY    41  40  96 VRB7      30.06R
DEER LODGE       N/A     52  39  62 NW9       30.08F
EUREKA           N/A     54  45  71 SE6       29.96R
HAMILTON         N/A     52  46  82 S6        30.08R
LIBBY            N/A     50  48  93 CALM      29.97S
RONAN            N/A     54  45  71 SE6       30.06R
$$

MTZ008-052>055-310500-
SOUTHWEST MONTANA

CITY           SKY/WX    TMP DP  RH WIND       PRES   REMARKS
BOZEMAN        CLOUDY    64  41  42 S6        29.93R
DILLON         PTCLDY    63  23  21 W16G26    29.99R
W YELLOWSTONE  MOCLDY    57  23  26 SW13      30.07R
THREE FORKS      N/A     63  26  24 NW9       29.98R
TWIN BRIDGES     N/A     63  32  31 W16       29.99R
$$

MTZ009-010-012-014-046-048-049-054-310500-
EAST SLOPES AND CENTRAL MONTANA

CITY           SKY/WX    TMP DP  RH WIND       PRES   REMARKS
CUT BANK       CLOUDY    54  37  52 W23G38    29.85R
GREAT FALLS    CLOUDY    57  36  45 W18G30    29.90R
MALMSTROM AFB  CLOUDY    60  37  42 W28G37    29.92R
HELENA         MOCLDY    58  39  49 W16G33    30.00R
CONRAD           N/A     58  42  55 SW9       29.90
$$

MTZ011-013-016-021-045-047-050-051-310500-
NORTH CENTRAL MONTANA

CITY           SKY/WX    TMP DP  RH WIND       PRES   REMARKS
HAVRE          CLOUDY    64  43  46 MISG      29.82R
LEWISTOWN      LGT RAIN  61  45  55 VRB3      29.93R
N BAR RANCH    CLOUDY    57  46  67 NW21      29.93R
CHINOOK          N/A     61  50  67 S7        29.81R
FORT BENTON      N/A     64  37  36 SW15G22   29.87S
$$

MTZ017>020-022>027-061-062-310500-
NORTHEAST MONTANA

CITY           SKY/WX    TMP DP  RH WIND       PRES   REMARKS
GLASGOW        LGT RAIN  63  58  83 N6        29.76R
JORDAN           N/A     65  54  67 E3        29.74S
SIDNEY         CLOUDY    70  48  46 CALM      29.72R
WOLF POINT     CLOUDY    63  58  83 W7        29.74F
MALTA            N/A     63  56  78 CALM      29.74F
PLENTYWOOD       N/A     68  48  49 SW6       29.77R
POPLAR           N/A     64  57  77 NW6       29.73F
SCOBEY           N/A     69  49  48 SW14      29.76R
$$

MTZ028>42-056>058-310500-
SOUTHCENTRAL AND SOUTHEAST MONTANA

CITY           SKY/WX    TMP DP  RH WIND       PRES   REMARKS
BAKER          CLOUDY    71  52  50 SE9       29.74F
BILLINGS       MOCLDY    76  35  22 W8        29.78R
LIVINGSTON     PTCLDY    63  37  38 W5        29.88R
MILES CITY     CLOUDY    69  58  67 N8        29.71R
FORSYTH          N/A     72  52  49 N7        29.70S
LAUREL           N/A     77  28  16 SW9       29.80R
ROUNDUP          N/A     63  48  57 CALM      29.78R
$$

REGIONAL REPORTS...DAKOTAS

CITY           SKY/WX    TMP DP  RH WIND       PRES   REMARKS
WILLISTON      MOCLDY    69  49  48 S3        29.73R
MINOT          CLOUDY    68  53  58 NW7       29.67F
DICKINSON      CLOUDY    69  50  50 N9        29.69F
BEACH            N/A     64  59  82 NE3       29.72F
CROSBY           N/A     61  54  77 SW8       29.71R
BISMARCK       PTCLDY    76  58  53 NW3       29.65S
GRAND FORKS    PTCLDY    75  69  81 S17       29.66S
FARGO          PTCLDY    75  67  76 S18       29.72S
BUFFALO SD       N/A     71  55  56 SE7       29.69R
RAPID CITY     MOCLDY    70  59  68 W12       29.77S
$$

REGIONAL REPORTS...WYOMING/IDAHO/WASHINGTON

CITY           SKY/WX    TMP DP  RH WIND       PRES   REMARKS
GILLETTE       CLOUDY    76  47  35 SW14      29.82R
SHERIDAN       CLOUDY    69  53  56 NW10      29.80R
BUFFALO WY     CLOUDY    75  43  31 W3        29.86F
CODY           PTCLDY    70  32  24 S5        29.91S
YELLOWSTONE LA   N/A     46  33  60 CALM      30.17S
IDAHO FALLS    CLEAR     63  31  30 SW10      30.01R
SALMON         PTCLDY    61  36  39 E7        30.00R
BOISE          CLEAR     69  41  36 NW9       29.97R
SPOKANE        PTCLDY    59  41  51 SW10      29.96R
$$

REGIONAL REPORTS...ALBERTA

CITY           SKY/WX    TMP DP  RH WIND       PRES   REMARKS
EDMONTON       CLEAR     57  39  51 NW5       29.50F
CALGARY        PTCLDY    57  30  35 W23G32    29.65S
LETHBRIDGE     PTCLDY    55  37  50 W18G28    29.77R
MEDICINE HAT   PTCLDY    64  36  34 SW22G37   29.69R
WATERTON GATE    N/A     52  34  50 SW23G43     N/A
CARDSTON         N/A     54  32  43 W10G21      N/A
MILK RIVER       N/A     57  37  47 W23G30      N/A
ONEFOUR          N/A     63  34  34 W15G23      N/A
$$

REGIONAL REPORTS...SASKATCHEWAN

CITY           SKY/WX    TMP DP  RH WIND       PRES   REMARKS
SWIFT CURRENT  MOCLDY    68  37  32 W15G23    29.68R
REGINA         CLOUDY    64  55  72 SE10      29.65F
SASKATOON      PTCLDY    63  43  48 S10       29.56F
CYPRESS HILLS    N/A     59  36  41 SW10        N/A
VAL MARIE        N/A     59  52  77 SW7         N/A
ROCKGLEN         N/A     64  52  63 S15         N/A
ASSINIBOIA       N/A     57  50  77 S12         N/A
$$


USA.gov is the U.S. government's official web portal to all federal, state and local government web resources and services.